Location: Jablonná
(49.7807°N, 14.4498°E)
Time: 03:06:06
(UTC+00:00)

Daily predictions for brighter satellites

Satellite Brightness Start Highest point End
(mag) Time Altitude Azimuth Time Altitude Azimuth Time Altitude Azimuth
ATLAS 3B R/B 3.9 01:40:33 44° NE 01:40:33 44° NE 01:47:01 10° ESE
USA 267 4.4 01:47:19 10° ENE 01:51:29 37° NE 01:51:29 37° NE
ATLAS 2AS CENTAUR R/B 3.6 01:59:54 44° E 01:59:54 44° E 02:05:29 10° NE
Cosmos 2263 Rocket 3.6 02:18:15 34° E 02:18:15 34° E 02:22:01 10° ESE
USA 229 DEB 4.5 02:34:26 43° N 02:36:23 52° NE 02:44:09 10° ESE
S3M 4.4 02:43:56 10° N 02:50:09 58° ENE 02:56:14 10° SSE
Cosmos 2219 3.6 02:53:43 56° SE 02:53:43 56° SE 02:58:11 10° SSE
H-2A R/B 2.3 02:57:48 10° NNE 03:02:39 61° E 03:02:39 61° E
PAYLOAD A 4.1 03:02:43 10° NNE 03:07:52 79° NE 03:07:52 79° NE
Meteor 1-24 Rocket 4.4 03:04:18 10° S 03:09:34 51° E 03:14:44 10° NNE
BREEZE-M DEB (TANK) 3.5 03:15:12 69° E 03:15:12 69° E 03:22:15 10° E
Cosmos 1844 Rocket 4.4 03:11:59 13° N 03:16:12 30° NE 03:21:05 10° ESE
Cosmos 1331 Rocket 4.3 03:17:17 57° N 03:17:17 57° N 03:21:36 10° NNE
CZ-4 R/B 4.4 03:16:32 10° NNE 03:20:17 50° N 03:20:17 50° N
NOSS 3-1 (A) 4.2 03:23:44 49° WSW 03:24:10 49° WSW 03:32:35 10° SSE
Cosmos 1980 Rocket 2.2 03:23:21 47° SSW 03:25:00 78° ESE 03:30:37 10° NNE
USA 281 3.1 03:20:29 10° SSE 03:27:03 89° ENE 03:32:52 14° NNW
IRS-1D 3.3 03:23:37 10° NNE 03:28:38 90° WNW 03:29:32 61° SSW
Cosmos 2369 4.1 03:25:05 20° S 03:29:01 61° ESE 03:34:36 10° NE
SL-08 ROCKET BODY 4.2 03:24:52 16° S 03:29:40 84° W 03:35:35 10° N
ATLAS 3B R/B 2.9 03:27:51 41° WNW 03:30:50 69° SW 03:38:27 10° SSE
USA 267 3.7 03:29:41 10° E 03:36:00 53° NNE 03:38:49 32° NW
Meteor 2-5 Rocket 3.7 03:31:50 10° S 03:37:36 83° E 03:43:17 10° NNE
Cosmos 371 Rocket 3.2 03:37:59 40° NNW 03:39:43 82° ENE 03:44:33 10° SSE
Cosmos 1697 Rocket 3.0 03:42:44 44° NW 03:42:44 44° NW 03:48:05 10° NNE
ATLAS CENTAUR R/B 1.9 03:43:56 42° NNE 03:43:56 42° NNE 03:46:43 10° NE
Okean 2 Rocket 4.3 03:38:39 10° N 03:42:56 42° ENE 03:47:10 10° SE
NOSS 2-1 (D) 3.7 03:43:28 51° N 03:44:05 58° NE 03:48:46 10° SE
Cosmos 482 Debris 4.4 03:44:56 70° SW 03:45:23 80° SSE 03:49:18 10° ENE
Lacrosse 4 Rocket 2.4 03:49:00 32° S 03:49:00 32° S 03:51:28 10° S
COSMO-SKYMED 1 3.2 03:43:31 10° SSE 03:47:45 55° ENE 03:52:01 10° N
Cosmos 1939 Rocket 2.6 03:44:50 10° NNE 03:48:34 83° ESE 03:49:12 59° S
ATLAS 2AS CENTAUR R/B 2.9 03:47:22 40° W 03:49:43 56° NW 03:56:35 10° NE
Cosmos 1452 Rocket 4.0 03:52:05 40° NW 03:52:05 40° NW 03:56:45 10° NNE
Cosmos 2315 Rocket 3.9 03:45:35 10° NNW 03:51:58 75° W 03:58:17 10° S
Cosmos 1818 3.5 03:51:21 36° SW 03:53:39 82° NW 03:59:10 10° NE
USA 59 Rocket 0.1 03:53:36 47° NNW 03:54:36 69° NE 03:59:30 10° SE
Cosmos 2242 Rocket 3.5 03:54:08 32° SSW 03:56:05 67° W 04:00:32 10° N
Cosmos 1302 Rocket 3.8 03:53:25 28° SW 03:56:09 73° WNW 04:01:21 10° NNE
Cosmos 883 Rocket 4.4 03:51:24 10° NNW 03:57:40 64° W 04:03:52 10° S
CZ-2C R/B 3.5 03:53:55 10° N 03:56:42 27° NNW 03:56:42 27° NNW
RUBIN 8/PSLV 4.4 03:55:19 10° NNE 03:59:35 85° WNW 04:03:51 10° SSW
Cosmos 2263 Rocket 2.5 04:00:01 39° W 04:00:38 41° WSW 04:05:51 10° S
Cosmos 2082 3.9 04:03:04 34° WNW 04:04:58 47° WSW 04:10:20 10° S
CBERS-1 4.2 04:01:23 10° NNE 04:06:32 75° ESE 04:11:39 10° S
Cosmos 2266 Rocket 4.2 04:05:10 10° SSW 04:11:21 48° WNW 04:17:32 10° N
BREEZE-M DEB (TANK) 2.2 04:14:05 48° W 04:14:52 84° S 04:21:04 10° E
Cosmos 2151 Rocket 3.5 04:11:45 10° NNW 04:16:12 83° W 04:20:40 10° S
Cosmos 1437 Rocket 2.5 04:16:19 10° S 04:19:54 81° E 04:23:32 10° NNE
NOSS 2-1 (E) 3.4 04:20:27 31° NW 04:22:16 77° SW 04:27:19 10° SE
SL-08 RB Rocket 3.6 04:18:48 10° N 04:23:24 75° WNW 04:27:59 10° SSW
SL-16 R/B 2.9 04:18:50 10° S 04:24:21 57° ESE 04:29:55 10° NE
Okean 1 Rocket 3.3 04:20:18 10° N 04:24:47 75° E 04:29:14 10° SSE
Gbstr 26 Del rocket 3.9 04:22:25 15° SW 04:26:11 56° SSE 04:31:41 10° ENE
Cosmos 1484 Rocket 2.7 04:23:50 10° N 04:27:13 45° WNW 04:30:34 10° SW
USA 229 DEB 4.1 04:21:54 18° NW 04:27:36 57° WSW 04:35:30 10° SSE
USA 229 4.1 04:22:01 18° NW 04:27:44 58° WSW 04:35:36 10° SSE
Cosmos 2084 Rocket 4.2 04:23:51 10° SSW 04:28:02 51° SE 04:32:08 10° NE
Cosmos 1606 3.9 04:25:05 10° N 04:28:17 37° ENE 04:31:26 10° SE
Cosmos 304 Rocket 4.1 04:26:56 21° NW 04:29:42 42° WSW 04:34:09 10° S
Cosmos 1655 Rocket 4.1 04:24:37 10° SSW 04:30:49 52° WNW 04:37:01 10° N
SKYMED 2 3.7 04:31:38 10° S 04:35:51 51° W 04:40:07 10° NNW
Cosmos 2219 4.4 04:35:43 20° W 04:35:59 20° W 04:40:00 10° SW
Cosmos 2344 4.1 04:28:31 10° SSW 04:36:00 58° ESE 04:43:08 10° NE
BREEZE-M DEB (TANK) 3.6 04:39:15 11° SW 04:41:16 27° SSE 04:44:28 10° E
H-2A R/B 3.1 04:37:54 10° N 04:41:42 22° WNW 04:43:10 19° W
USA 215 4.1 04:36:38 10° ENE 04:42:58 50° SE 04:49:16 10° SSW
BREEZE-M DEB (TANK) 4.2 04:45:31 16° WSW 04:47:27 31° S 04:54:59 10° SE
Cosmos 1328 3.9 04:43:56 10° SSW 04:47:29 43° WNW 04:51:03 10° N
Cosmos 2333 Rocket 3.4 04:44:43 10° S 04:50:08 46° ESE 04:55:33 10° NE
ARIANE 5 R/B 2.6 04:47:47 10° NNE 04:52:52 81° ESE 04:57:59 10° SSW
Meteor 1-24 Rocket 4.5 04:48:20 10° WSW 04:52:55 27° WNW 04:57:26 10° N
ARGOS 3.6 04:48:04 10° N 04:53:04 39° WNW 04:58:03 10° SW
SL-8 R/B 3.9 04:49:43 13° WSW 04:53:57 67° SSE 04:58:41 10° E
Thor Agena Rocket 4.3 04:50:00 10° N 04:54:32 31° WNW 04:59:02 10° WSW
Cosmos 2278 3.6 04:49:34 10° SSW 04:55:12 78° WNW 05:00:54 10° NNE
Cosmos 2221 Rocket 3.6 04:51:35 10° SSW 04:55:55 57° WNW 05:00:18 10° N
Cosmos 1844 Rocket 2.7 04:54:55 10° NW 05:00:30 62° WSW 05:06:01 10° SSE
NOSS 2-1 (C) 4.3 04:58:22 16° WNW 05:01:07 36° SW 05:05:48 10° SSE
Cosmos 2278 Rocket 4.2 04:59:11 10° N 05:03:33 22° NE 05:07:53 10° E
Cosmos 2322 Rocket 2.6 04:58:20 10° SSW 05:03:57 71° ESE 05:09:36 10° NNE
TSX-5 4.2 05:00:02 10° NW 05:04:16 78° WSW 05:09:34 10° SSE
Sich 1 Rocket 4.3 05:01:10 10° NNW 05:05:11 33° W 05:09:13 10° SSW
H-2A R/B 1.8 05:03:42 10° N 05:06:07 45° WNW 05:08:29 10° SSW
Cosmos 1943 Rocket 4.3 05:03:41 10° N 05:07:33 19° NE 05:11:24 10° E
Cosmos 1975 Rocket 4.1 05:03:38 10° S 05:07:57 52° E 05:12:18 10° NNE
Cosmos 1386 Rocket 4.4 05:03:02 10° S 05:09:09 84° W 05:15:14 10° N
Cosmos 1980 Rocket 3.2 05:05:10 10° W 05:09:37 25° NW 05:14:13 10° NNE
SMAP 4.2 05:05:07 10° NNE 05:09:39 48° E 05:14:09 10° S
Meteor 1-21 Rocket 4.1 05:04:50 10° SSW 05:10:26 74° WNW 05:16:00 10° N
IRS-1C 4.1 05:05:33 10° NNE 05:10:53 73° WNW 05:16:11 10° SSW
USA 281 4.4 05:07:35 10° SW 05:12:20 21° W 05:17:07 10° NW
Cosmos 1777 Rocket 4.1 05:09:21 10° NNW 05:14:34 62° WSW 05:19:44 10° S
IRS-P3 4.1 05:10:52 10° NNE 05:16:14 84° WNW 05:21:33 10° SSW
Cosmos 1745 Rocket 4.1 05:10:47 10° S 05:17:10 87° W 05:23:32 10° N
Cosmos 1674 Rocket 4.3 05:14:31 10° SW 05:18:18 29° WNW 05:22:08 10° N
Cosmos 1025 Rocket 3.1 05:14:30 10° SSW 05:18:40 55° WNW 05:22:52 10° N
USA 267 3.3 05:12:15 10° ESE 05:18:48 85° SSW 05:25:23 10° WNW
ATLAS 3B R/B 4.3 05:15:27 10° WNW 05:20:18 18° WSW 05:25:04 10° SW
Okean 2 Rocket 4.2 05:17:09 10° NW 05:20:41 23° W 05:24:12 10° SW
ATLAS CENTAUR R/B 3.0 05:18:24 10° WNW 05:20:46 16° NNW 05:23:12 10° NNE
ARIANE 6 FM1 Upper Stage 2.8 05:19:27 10° WSW 05:23:38 62° NW 05:27:54 10° NE
Cosmos 1503 Rocket 4.3 05:18:58 10° NNW 05:24:05 48° WSW 05:29:05 10° S
COSMO-SKYMED 1 4.0 05:21:13 10° SW 05:24:15 18° W 05:27:18 10° NW
Cosmos 482 Debris 4.3 05:20:47 10° W 05:25:07 60° N 05:28:27 10° ENE
SeaSat 1 4.3 05:21:12 10° E 05:25:12 26° NE 05:29:12 10° NNW
PSLV R/B 4.2 05:21:03 10° NNE 05:25:14 60° ESE 05:29:21 10° S
SL-08 R/B 3.3 05:22:23 10° S 05:27:09 68° WSW 05:31:50 10° NNW
Cosmos 1697 Rocket 4.5 05:25:18 10° WNW 05:28:10 14° NNW 05:31:02 10° N
Cosmos 1844 4.1 05:23:45 10° NW 05:29:05 43° WSW 05:34:27 10° S
Cosmos 2098 Rocket 3.9 05:29:15 10° NW 05:32:08 20° W 05:34:41 10° SW
Helios 1A 2.9 05:28:26 10° SSE 05:32:30 90° ENE 05:36:35 10° NNW
Cosmos 2219 Rocket 3.1 05:29:27 10° S 05:34:56 56° ESE 05:40:24 10° NE
In-Cosmos 22 Rocket 4.3 05:29:15 10° SSW 05:34:59 61° WNW 05:40:40 10° N
